カタログに戻る

KUIPER-00187

運用中通信LEO
NORAD 67141·PAYLOAD·🇺🇸 United States

打ち上げ Dec 15, 2025 から Cape Canaveral Space Force Station

Loading…

次のパス (今後24時間)

TLE

最新Source: CelesTrak SupGP

元期: Sep 14, 2026, 14:46 UTC

1 67141C 25301J   26257.61540509  .00007853  00000+0  10283-2 0  2577
2 67141  51.9032 325.2501 0000494  89.7498  38.7450 14.79914233    12

AllMySatでKUIPER-00187をリアルタイム追跡

Download on the App Store